Regional Weather Roundup
Issued by NWS Little Rock, AR

Home | Current Version | Previous Version | Graphics & Text | Print | Product List | Glossary On
Versions: 1 2 3 4 5 6 7 8 9 10 11 12 13 14 15 16 17 18 19 20 21 22 23 24 25 26 27 28 29 30 31 32 33 34 35 36 37 38 39 40 41 42 43 44 45 46 47 48 49 50
000
ASUS44 KLZK 260205
RWRLZK

WEATHER ROUNDUP FOR ARKANSAS
NATIONAL WEATHER SERVICE LITTLE ROCK AR
900 PM CDT SAT APR 25 2015

NOTE: "FAIR" INDICATES FEW OR NO CLOUDS BELOW 12,000 FEET WITH NO
SIGNIFICANT WEATHER AND/OR OBSTRUCTIONS TO VISIBILITY.

ARZ001-003-010-029-260300-
NORTHWEST ARKANSAS

CITY           SKY/WX    TMP DP  RH WIND       PRES   REMARKS
FAYETTEVILLE   CLEAR     66  54  65 NW9       29.65R
FORT SMITH     CLEAR     72  53  51 SW6       29.60R
HARRISON       CLEAR     67  54  63 NW6       29.65R
BENTONVILLE    CLEAR     66  52  59 N7        29.67R
ROGERS         CLEAR     66  54  65 N8        29.68R
SILOAM SPGS    CLEAR     64  52  63 N9        29.68R
HIGHFILL       CLEAR     65  53  65 N9        29.66R
$$

ARZ004-005-016-260300-
NORTH CENTRAL ARKANSAS

CITY           SKY/WX    TMP DP  RH WIND       PRES   REMARKS
BATESVILLE     CLEAR     72  52  49 W9        29.58R
FLIPPIN        CLEAR     72  54  53 NW10      29.61R
MTN HOME       CLEAR     69  54  58 VRB6      29.61R
$$

ARZ040-041-260300-
WEST CENTRAL ARKANSAS

CITY           SKY/WX    TMP DP  RH WIND       PRES   REMARKS
MENA           CLEAR     73  50  43 SW6       29.66R
MOUNT IDA      CLEAR     70  52  52 VRB3      29.62R
$$

ARZ009-017-025-026-028-260300-
NORTHEAST ARKANSAS

CITY           SKY/WX    TMP DP  RH WIND       PRES   REMARKS
CORNING          N/A     72  55  56 NW8       29.57R
JONESBORO      PTCLDY    66  58  75 W5        29.56R
NEWPORT        CLEAR     72  55  54 SW9       29.58R
WALNUT RIDGE   CLEAR     73  54  49 W5        29.56R
BLYTHEVILLE    PTCLDY    71  64  78 SW10      29.56R
$$

ARZ022-023-033-042-044-260300-
CENTRAL ARKANSAS

CITY           SKY/WX    TMP DP  RH WIND       PRES   REMARKS
LITTLE ROCK    CLEAR     75  50  41 SW6       29.60R
N LITTLE ROCK  CLEAR     74  56  53 W5        29.60R
JACKSONVILLE   CLEAR     67  58  74 W1        29.60R
SEARCY         CLEAR     72  54  53 W3        29.60R
HOT SPRINGS    CLEAR     73  50  44 W5        29.63R
RUSSELLVILLE   CLEAR     66  55  67 CALM      29.60R
CLINTON        FAIR      64  57  77 CALM      29.61R
$$

ARZ036-260300-
EAST ARKANSAS

CITY           SKY/WX    TMP DP  RH WIND       PRES   REMARKS
WEST MEMPHIS   CLEAR     72  63  73 SW3       29.56R
$$

ARZ050-053-066-070-073-260300-
SOUTHWEST ARKANSAS

CITY           SKY/WX    TMP DP  RH WIND       PRES   REMARKS
ARKADELPHIA    FAIR      69  67  93 CALM      29.63R
CAMDEN         CLEAR     64  55  72 CALM      29.64R
TEXARKANA      CLEAR     73  55  53 SW5       29.65R
EL DORADO      CLEAR     68  59  73 CALM      29.65R
DE QUEEN       CLEAR     64  56  75 CALM      29.63R
$$

ARZ056-057-069-260300-
SOUTHEAST ARKANSAS

CITY           SKY/WX    TMP DP  RH WIND       PRES   REMARKS
PINE BLUFF     CLEAR     73  54  51 SW6       29.62R
STUTTGART      CLEAR     72  55  56 SW10      29.60R
MONTICELLO     CLEAR     72  56  57 W5        29.63R

$$





USA.gov is the U.S. government's official web portal to all federal, state and local government web resources and services.